STARLINK-36091

Last updated on Mon Dec 15 2025 00:02:12 GMT+0000 (Coordinated Universal Time)

1 66848U 25281A 25348.25003472 -.01142852 00000+0 -47912-2 0 9994 2 66848 43.0006 113.0436 0001512 271.6891 247.7890 15.87295795 1644
UTC large
Height (km)
Speed (km/s)
/
Latitude / Longitude
Inclination (degrees)
Orbital Period (minutes)
Azimuth
Elevation
Range (km)
Doppler Factor

Next 0 passes for location: London (51.5072 / 0.1276)

Sorry there are no passes over London.